Location: Unspecified
(48.7670°N, 0.0000°E)
Time: 14:34:08
(UTC+00:00)

Vanguard 1 - Visible Passes

Search period start: 16 June 2019 00:00
Search period end: 26 June 2019 00:00
Orbit: 654 x 3829 km, 34.2° (Epoch: 15 June)

Date Brightness Start Highest point End Pass type
(mag) Time Alt. Az. Time Alt. Az. Time Alt. Az.
17 Jun 13.2 01:52:13 10° S 01:59:27 14° SSE 02:05:11 10° ESE visible
18 Jun 13.0 02:10:46 11° SSW 02:20:24 19° SSE 02:27:42 10° ESE visible
19 Jun 12.8 02:29:53 11° SSW 02:41:22 24° SSE 02:49:25 10° ESE visible
20 Jun 13.4 00:36:15 13° SSE 00:40:24 14° SE 00:47:00 10° ESE visible
20 Jun 12.6 02:49:14 10° SW 03:02:20 28° SSE 03:10:45 10° ESE visible
21 Jun 13.2 00:55:08 16° S 01:01:19 19° SSE 01:10:03 10° ESE visible
21 Jun 12.4 03:09:27 10° SW 03:23:18 33° S 03:31:51 10° ESE visible
22 Jun 13.0 01:13:54 18° S 01:22:16 24° SSE 01:32:04 10° ESE visible
22 Jun 13.5 23:19:55 13° SE 23:20:54 13° SE 23:27:12 10° ESE visible
23 Jun 12.8 01:32:31 17° SSW 01:43:14 29° SSE 01:53:36 10° ESE visible
23 Jun 13.4 23:38:22 17° SSE 23:41:44 18° SE 23:51:23 10° ESE visible
24 Jun 12.7 01:50:56 15° SSW 02:04:13 34° SSE 02:14:51 10° ESE visible
24 Jun 13.2 23:56:33 20° S 00:02:35 23° SSE 00:13:54 10° ESE visible
25 Jun 12.5 02:09:06 12° SW 02:25:12 38° SSE 02:35:54 10° ESE visible
25 Jun 13.7 22:01:52 10° SE 22:01:52 10° SE 22:02:13 10° SE visible
